Theta_e
351 351 349 346 344 345 347 347 347 348 348 350 350 350 352 353 353 354 353 352 350 350 349 348 349 348 347 347 347 348 352 354 354 353 351 350 348 349 351 351 350 351 352 351 350 351 351 351 352 353 352 351 350 350 349 349 350 351 352 352 351 352 351 350 346 344 344 344 344 345 345 345 344 345 345 345 345 344 344 345 344 343 343 344 345
351 351 350 347 344 345 346 346 346 347 348 349 349 349 351 352 352 353 352 352 350 349 349 348 348 348 347 346 346 347 350 353 354 352 352 351 349 348 349 349 348 351 353 351 351 351 351 352 352 353 353 351 350 350 349 349 351 352 353 353 351 352 353 351 347 344 344 344 345 345 344 344 344 345 346 346 345 343 343 345 345 343 342 342 344
352 350 350 348 345 345 345 345 346 346 347 348 348 349 351 352 351 351 352 352 350 350 350 348 347 348 347 345 347 347 349 351 351 351 352 353 352 348 349 349 346 350 353 351 351 351 351 352 352 354 353 353 352 351 350 349 351 354 354 354 353 353 353 352 350 348 346 345 345 346 347 348 347 344 344 346 346 344 342 344 344 342 342 342 342
353 351 350 349 346 346 345 345 345 345 346 347 347 348 351 352 351 351 352 352 351 350 350 348 347 348 347 346 347 348 349 350 349 350 352 354 353 349 349 350 346 348 351 351 352 352 352 352 353 354 353 354 353 350 350 350 351 352 353 354 354 353 353 353 352 350 348 346 346 349 348 350 354 348 342 344 346 344 342 342 343 341 341 342 342
353 352 351 349 347 346 345 345 344 344 345 346 347 348 350 351 351 350 351 352 351 350 350 348 347 348 348 346 346 348 350 351 351 353 354 354 353 350 350 350 347 348 349 349 353 354 352 352 354 355 353 355 354 351 352 352 350 350 351 354 354 353 353 353 354 351 350 347 346 351 350 351 361 353 342 344 344 343 342 341 341 341 341 342 342
352 352 351 349 348 347 346 346 344 344 344 346 347 348 350 351 351 350 351 351 351 350 350 348 348 348 349 347 344 346 349 351 353 354 355 354 353 351 352 352 348 348 349 349 353 354 352 353 354 354 355 354 354 354 353 352 351 350 351 354 355 354 353 353 353 352 351 349 347 350 349 350 356 351 345 348 345 341 343 342 341 341 341 342 343
352 351 351 349 348 347 347 346 345 344 343 345 346 347 350 350 350 350 350 351 351 350 349 349 348 349 350 348 345 346 349 351 352 352 352 353 352 351 353 355 352 349 350 349 352 354 353 354 354 354 356 355 355 355 353 351 352 351 351 354 355 354 353 351 351 352 350 349 348 348 347 346 348 346 347 351 349 343 340 340 341 341 341 342 343
354 352 351 350 348 348 348 347 347 344 343 344 346 347 349 350 350 350 350 351 351 349 350 349 349 349 350 348 345 346 348 349 351 352 351 351 353 352 353 355 354 351 352 351 352 355 354 356 357 355 356 356 356 355 354 352 352 353 352 353 354 353 353 352 349 350 349 348 348 347 347 345 343 345 345 347 354 355 347 342 341 341 342 342 343
354 352 352 350 349 349 348 348 347 346 343 343 345 346 348 350 350 351 350 350 351 350 350 350 349 349 350 348 346 347 348 348 350 352 352 352 353 354 354 355 356 354 355 353 353 356 354 355 357 357 356 357 357 355 354 354 353 353 354 353 353 352 353 354 350 349 352 350 348 347 347 344 341 344 343 342 351 357 354 349 343 341 342 343 343
353 352 352 350 349 349 349 349 349 347 344 343 344 346 348 350 350 351 351 350 351 350 351 351 350 350 350 349 346 345 347 348 349 351 352 353 354 354 354 355 356 356 357 355 353 355 355 355 357 357 357 357 357 356 355 355 354 353 354 354 354 353 353 355 353 352 354 353 350 349 347 345 342 343 342 342 344 346 348 347 344 343 344 342 343
354 352 352 350 349 349 349 350 349 348 346 344 345 345 347 350 349 350 351 351 351 350 351 351 350 350 350 349 348 346 347 347 347 349 350 353 354 354 355 355 355 356 357 356 354 355 356 355 355 356 357 357 357 356 355 355 354 353 355 355 355 354 353 355 355 353 355 354 352 350 347 346 346 345 344 344 344 343 346 347 345 345 344 342 342
354 352 351 351 350 350 350 350 350 349 347 345 345 345 347 350 350 350 351 351 351 350 351 352 352 351 349 349 349 348 347 346 347 347 348 351 353 353 354 354 354 354 357 357 355 354 356 356 356 356 357 357 357 357 356 355 354 353 355 356 355 354 353 355 355 354 355 355 354 352 349 346 347 346 346 346 345 344 346 347 346 345 345 344 343
354 352 352 352 351 350 349 350 350 349 348 347 346 344 346 349 349 350 351 351 351 351 351 352 353 351 349 349 349 348 347 347 346 347 346 347 350 352 353 354 354 353 356 358 355 354 355 356 356 356 355 356 357 357 356 355 355 354 355 356 355 354 355 355 356 356 356 355 354 354 352 349 349 349 348 347 347 345 343 344 343 344 344 346 347
354 353 352 352 352 350 349 350 350 350 348 347 347 346 346 349 350 350 350 351 352 351 350 352 353 352 350 349 349 348 347 347 346 345 345 344 346 350 351 352 353 352 353 356 356 354 354 355 355 355 354 354 355 357 356 355 355 354 354 355 354 354 355 355 355 356 357 355 355 354 353 352 352 352 351 350 349 347 344 343 342 344 347 347 348
353 353 352 352 352 350 350 350 350 350 349 349 348 348 346 348 350 349 350 351 351 352 351 350 352 352 350 349 348 347 346 346 346 344 344 345 344 346 348 350 352 351 351 354 355 355 354 354 355 355 353 353 354 355 355 355 355 355 355 355 353 354 355 355 354 355 357 357 357 355 354 354 353 353 353 353 352 348 346 344 343 348 351 349 349
352 353 353 352 351 350 351 350 350 351 350 350 350 349 348 348 349 349 350 351 351 352 351 350 351 351 350 348 347 346 345 346 345 343 345 346 345 344 345 347 349 349 350 352 354 355 355 355 355 354 353 354 355 354 353 354 354 355 355 355 354 354 355 356 355 356 357 358 358 357 356 356 354 354 355 355 353 348 346 345 346 349 351 352 359
352 353 352 353 352 350 351 350 351 351 351 351 350 351 350 349 350 350 350 351 351 351 352 350 350 350 349 348 346 345 345 346 344 343 345 347 346 346 344 345 347 348 350 351 352 353 353 354 354 354 353 355 356 355 354 355 354 354 355 355 355 355 356 356 355 356 358 358 359 358 357 356 355 354 355 356 354 349 346 346 349 349 348 353 365
352 353 352 353 352 350 351 351 351 351 352 352 351 351 352 350 350 350 350 351 351 351 352 350 350 350 349 347 346 345 345 346 344 342 344 346 345 345 344 344 346 348 349 349 351 351 352 352 353 354 353 353 355 356 356 355 354 354 354 355 356 355 356 356 356 355 356 357 358 358 358 357 355 354 355 356 355 352 348 348 351 350 349 352 355
352 353 352 353 352 351 350 350 351 352 351 353 353 352 353 352 352 351 351 351 352 352 352 351 350 350 349 348 345 344 344 346 346 343 343 344 344 343 344 344 345 347 349 349 350 351 352 351 352 353 353 352 353 355 356 356 355 354 352 353 354 355 356 356 356 355 354 355 356 357 357 357 356 356 356 357 356 355 353 352 353 351 350 351 349
352 353 353 352 352 352 350 350 351 352 352 353 353 353 354 354 353 352 352 352 352 353 353 352 350 349 349 348 346 344 344 345 347 346 344 344 343 342 342 343 344 345 347 349 350 351 352 352 352 353 353 352 352 353 354 356 356 355 353 351 350 352 354 353 354 355 355 355 355 356 356 356 357 357 356 357 357 357 356 354 355 352 350 353 352
351 353 354 353 353 352 351 350 350 351 352 353 353 354 354 354 354 353 353 353 353 353 353 353 352 350 349 348 347 345 344 344 346 347 346 344 342 341 341 342 343 343 344 346 346 347 350 352 352 352 353 353 353 352 352 354 355 356 355 353 351 352 352 350 352 355 356 355 354 355 356 356 356 357 357 357 357 356 357 356 357 355 352 354 355
351 353 353 353 353 352 351 351 350 351 353 353 353 354 354 355 355 354 354 353 353 353 354 354 353 351 349 348 347 346 344 344 344 346 347 345 343 340 338 339 340 340 341 340 339 339 343 347 349 350 351 352 353 352 352 352 355 356 356 355 355 355 354 352 352 355 356 355 354 354 355 355 355 356 357 358 357 356 356 357 357 357 356 355 355
351 353 353 353 352 352 352 351 350 351 352 353 354 354 355 355 356 356 355 355 354 354 354 354 354 352 351 349 348 347 345 344 344 344 345 345 344 342 339 339 338 339 339 338 336 336 339 343 344 345 347 350 353 352 351 352 354 356 357 356 356 357 356 355 355 355 354 353 354 354 355 354 353 354 355 356 356 356 356 357 357 357 357 357 356
353 352 353 354 352 352 352 351 351 351 352 353 354 354 354 355 356 357 356 356 355 355 354 355 354 354 352 351 349 348 346 345 344 344 343 343 343 343 343 342 341 341 341 339 338 339 342 344 344 343 344 347 351 352 352 352 352 354 355 355 355 356 356 356 356 355 354 353 353 353 354 356 355 354 354 354 355 355 355 356 356 356 357 357 357
354 353 355 355 353 354 352 351 352 352 352 353 353 354 355 355 356 357 357 357 357 356 355 355 355 354 353 352 351 350 348 347 345 344 343 342 342 342 342 344 343 344 343 342 341 342 345 347 347 346 345 345 349 350 351 352 352 353 354 353 354 354 354 354 354 354 355 355 354 353 353 355 356 355 354 354 354 355 355 356 355 355 356 356 356
355 355 355 355 355 355 353 353 352 351 353 354 354 354 354 355 356 357 358 358 358 357 357 356 356 355 354 353 352 351 350 348 347 345 343 342 341 341 340 342 343 345 345 344 344 344 346 347 348 349 348 347 347 349 350 352 353 354 354 354 353 353 354 353 352 351 354 356 356 354 352 353 354 355 355 355 355 354 355 356 356 355 355 355 355
355 355 357 357 357 356 353 352 352 352 353 353 354 355 354 355 356 357 358 358 358 359 358 358 357 356 356 355 353 352 351 350 349 347 345 343 342 341 340 340 341 343 344 345 346 346 345 345 346 347 348 349 349 349 350 351 353 354 355 354 353 353 354 353 352 350 351 355 356 356 354 353 352 352 354 355 355 354 355 355 356 356 354 354 355
352 352 356 358 360 363 360 353 351 352 352 353 354 354 354 355 355 357 358 358 359 359 359 359 359 358 358 357 356 354 352 351 350 348 347 345 343 342 341 340 340 340 342 343 345 346 346 345 344 343 345 347 350 350 350 350 352 353 355 354 354 353 353 354 353 351 350 351 354 354 355 354 353 351 351 352 354 354 354 355 356 355 355 354 354
349 349 351 353 354 359 360 356 354 353 353 353 354 354 354 355 355 356 358 359 359 360 359 360 360 359 359 359 358 357 355 354 352 350 349 347 345 343 342 341 340 340 340 341 342 343 345 346 346 344 344 346 350 351 351 350 350 351 353 354 354 354 355 354 354 353 352 350 350 351 353 353 353 352 350 352 353 354 354 354 355 355 355 354 354
344 344 346 348 349 350 352 352 352 354 355 354 354 356 355 355 355 356 358 359 360 360 360 360 360 361 360 360 360 360 358 357 355 354 352 349 347 346 343 342 342 341 340 341 342 342 344 345 347 346 345 346 349 351 351 351 350 350 351 353 355 355 355 355 354 354 354 352 350 351 352 353 353 353 352 353 354 356 356 355 354 354 354 354 354
338 339 340 342 345 347 350 350 349 349 352 355 355 356 356 356 356 356 357 360 360 361 361 361 361 361 361 361 361 361 360 360 358 357 355 353 351 349 346 345 344 343 342 342 342 343 344 345 346 347 346 347 348 350 350 350 350 350 351 352 354 355 356 356 356 355 355 354 353 352 352 354 355 355 354 354 354 356 356 356 355 354 354 354 354
334 336 337 338 340 344 347 349 349 349 349 351 354 355 356 356 357 356 357 359 360 361 361 362 362 362 362 362 362 362 362 361 360 359 357 355 354 352 350 348 347 346 345 344 344 344 344 345 346 347 347 347 348 348 349 350 350 350 352 353 353 355 356 356 356 356 355 355 354 353 352 353 353 353 354 355 355 355 355 354 354 353 353 353 353
334 334 334 335 336 339 342 344 347 349 349 349 350 353 355 356 356 357 357 358 359 361 361 362 363 363 363 363 363 363 362 361 361 360 359 357 356 354 352 351 349 348 347 347 346 346 345 345 346 347 348 348 348 348 348 349 349 350 352 354 354 354 355 355 356 356 355 355 355 355 354 353 352 351 352 354 354 354 354 354 353 353 353 353 353
332 333 334 334 334 336 338 339 340 343 347 350 349 349 354 356 356 356 357 357 358 359 360 361 362 363 364 364 364 363 363 362 362 361 360 359 357 355 354 353 351 350 349 349 348 347 347 346 346 347 349 349 349 348 348 348 349 349 351 353 355 355 354 355 355 355 355 355 356 356 355 354 352 352 352 352 352 352 353 354 355 355 354 352 352
328 330 332 333 333 334 335 336 337 339 342 348 352 350 351 354 356 357 357 357 357 358 359 360 361 362 363 363 363 363 362 362 362 361 361 359 358 357 355 354 353 352 350 350 350 349 348 347 347 347 348 349 350 349 350 349 349 349 350 352 355 356 355 355 355 354 355 355 355 355 355 355 354 353 352 352 352 352 352 354 354 354 352 351 350
326 327 328 330 330 331 333 334 336 338 339 345 351 353 351 352 353 355 357 357 357 357 358 359 360 360 361 362 362 362 362 362 362 361 361 360 359 358 357 355 354 353 352 351 351 350 350 348 348 348 348 349 350 350 351 351 350 350 350 352 354 355 355 355 355 355 355 355 355 355 355 355 355 354 353 352 353 354 354 355 355 353 352 350 349
326 326 327 328 329 330 332 334 335 337 338 341 345 348 350 351 352 352 354 355 356 357 357 358 359 359 360 361 361 360 361 362 362 361 360 360 359 359 358 356 355 353 353 352 351 352 351 350 349 348 348 349 350 350 351 352 352 351 352 353 354 355 356 356 356 356 355 355 355 356 356 355 355 354 353 352 353 355 356 356 355 354 352 351 350
325 326 326 327 328 329 331 333 334 336 337 339 341 344 347 350 352 352 352 354 354 355 356 357 358 358 358 359 359 359 359 361 362 361 361 360 359 359 358 357 356 355 353 352 352 352 352 352 351 350 350 350 350 351 352 352 352 352 353 354 355 355 356 356 356 356 356 355 355 355 355 355 355 354 353 353 353 354 355 355 354 353 353 352 349
325 326 326 327 327 329 331 332 333 334 336 338 340 343 346 350 353 353 353 353 353 354 356 357 357 357 357 358 358 358 358 360 361 361 361 360 360 359 359 357 356 355 354 353 352 352 353 353 353 352 351 351 352 352 352 353 353 353 354 355 356 356 356 357 357 357 357 356 356 355 354 354 353 353 353 353 352 352 352 352 352 352 353 352 349
325 325 326 326 327 328 330 331 332 334 336 338 340 343 347 351 354 356 355 353 353 354 356 357 356 357 356 356 357 357 357 359 361 361 361 361 360 360 359 358 357 356 355 354 353 353 353 353 354 353 353 352 352 353 354 354 354 354 355 356 357 357 357 357 357 358 357 357 356 356 355 354 353 353 352 352 352 352 351 351 351 352 352 352 350
324 325 326 326 327 328 329 330 332 334 336 337 340 343 347 350 353 356 357 357 356 354 354 355 356 356 356 356 356 355 357 358 360 361 362 361 361 360 359 358 358 356 355 355 354 354 354 354 354 355 354 354 353 353 354 355 356 356 356 357 357 357 357 357 357 358 358 358 357 357 356 355 354 354 353 353 353 354 354 353 353 353 353 352 352
324 324 325 326 327 328 329 330 332 334 335 337 340 344 348 350 353 356 359 361 362 360 357 354 354 355 356 356 356 355 356 357 359 361 362 361 361 361 360 359 359 357 356 356 355 355 354 355 355 355 355 355 354 354 354 355 356 356 357 357 358 358 357 358 358 357 358 358 358 357 357 355 355 354 354 355 356 357 358 358 357 357 356 354 354
323 324 325 326 327 328 329 330 332 334 336 338 341 345 348 350 353 356 359 362 365 366 365 361 357 355 355 355 356 356 355 356 359 360 362 362 362 361 361 360 359 358 357 356 356 355 355 355 355 355 356 356 355 355 355 354 355 356 357 357 358 358 358 358 358 358 358 358 358 357 356 355 355 354 354 355 355 356 357 358 359 360 359 358 357
323 323 325 326 326 328 329 331 333 335 337 339 341 343 346 347 350 353 357 360 363 366 367 367 365 361 357 355 355 356 356 356 358 360 362 362 362 361 361 361 360 359 358 357 356 356 355 355 355 355 356 356 356 356 355 355 354 354 355 357 358 358 358 359 358 358 358 358 358 358 357 356 355 355 354 354 354 353 353 353 354 356 358 360 360
322 323 324 325 326 328 329 331 333 336 337 338 339 341 343 345 346 349 354 358 362 365 367 367 366 365 362 357 355 355 355 356 357 360 362 362 362 362 361 361 361 360 359 358 357 356 356 356 356 356 356 356 357 357 356 355 355 354 354 354 355 357 358 359 359 358 358 358 358 358 358 357 357 357 356 356 355 355 354 353 353 353 355 357 359
321 322 324 325 325 326 329 331 334 336 336 336 336 338 340 342 344 348 353 358 361 363 363 363 364 365 364 360 356 354 355 356 357 360 362 362 363 362 362 361 361 360 360 359 358 357 356 356 356 356 356 357 357 357 357 357 356 356 355 354 354 354 355 357 358 358 358 358 359 358 358 358 358 357 357 357 357 356 356 356 356 356 357 356 355
321 321 324 325 324 324 328 331 333 334 334 334 334 335 336 338 341 346 352 356 358 360 361 360 361 363 364 362 357 354 356 357 358 361 362 363 363 362 362 362 361 361 360 360 358 357 357 356 357 357 357 358 358 358 358 358 358 358 357 356 356 355 355 355 356 357 358 358 358 358 358 358 358 358 358 358 358 358 358 358 358 358 359 359 358
320 321 323 325 324 323 327 330 331 331 332 332 332 333 334 335 338 344 349 353 356 358 359 359 360 362 364 362 356 354 356 358 360 362 363 364 364 363 363 363 362 362 361 360 359 359 357 356 357 357 358 358 359 359 359 359 359 359 359 359 358 358 357 357 356 356 357 357 357 357 358 358 358 358 359 359 359 359 360 360 360 361 361 361 360
320 320 322 325 324 323 326 329 329 328 329 330 331 331 331 333 337 341 344 346 348 352 357 359 360 362 364 362 357 355 356 359 362 363 363 364 364 364 363 363 363 363 362 361 360 360 359 358 357 357 358 359 359 360 360 359 359 359 359 359 359 359 359 358 358 358 357 355 354 355 356 357 358 358 359 359 360 360 361 361 362 362 361 361 360
319 320 322 325 325 323 326 328 328 326 327 329 329 329 330 332 334 336 337 338 342 347 354 359 360 362 364 363 358 355 357 360 362 364 365 365 365 365 364 364 364 363 363 363 362 361 360 359 358 358 358 358 359 359 360 360 361 360 360 360 359 358 359 359 359 359 356 352 352 354 355 356 357 358 358 359 359 359 360 360 360 361 362 360 357
319 320 322 325 325 324 325 328 327 326 327 328 328 328 329 330 330 331 333 335 338 344 351 357 358 360 363 364 359 356 358 360 363 365 366 365 364 365 365 365 365 364 364 363 363 362 362 360 360 359 358 357 358 358 359 361 361 361 361 362 361 360 359 359 360 359 355 351 351 353 354 355 356 356 357 357 357 358 358 357 358 360 358 352 349
Wind_Speed
19 24 23 24 31 34 36 35 35 36 37 39 37 33 35 35 34 32 30 31 33 30 29 29 27 26 24 23 23 21 23 26 24 20 19 18 17 16 17 17 17 17 15 15 14 13 13 12 11 11 10 10 10 9 10 10 9 9 10 10 8 7 8 8 7 9 14 13 11 10 7 7 7 9 11 10 12 14 14 13 12 10 9 9 9
17 20 20 22 28 34 35 34 35 36 36 39 38 35 37 36 36 34 31 33 34 32 31 31 29 28 26 25 24 22 22 26 25 21 19 18 17 17 17 17 17 17 15 14 13 12 13 13 12 11 10 10 10 9 9 8 8 9 10 10 8 8 7 8 8 8 11 11 9 7 3 4 7 9 10 10 10 13 15 14 15 13 11 9 9
15 17 19 21 27 34 34 32 36 37 37 39 38 37 37 37 38 36 33 34 36 34 32 32 30 27 26 25 24 20 18 23 24 20 20 19 17 18 17 17 17 17 15 13 13 13 13 13 12 11 10 10 10 10 9 8 9 10 10 9 9 8 6 7 7 5 6 9 8 3 1 1 3 7 11 11 10 11 14 14 15 15 12 10 10
16 17 17 19 26 32 32 32 35 36 36 37 38 38 38 38 39 38 36 35 36 36 33 32 31 27 25 25 24 20 14 19 25 22 22 21 18 18 18 17 18 17 15 13 13 13 13 13 12 11 10 10 9 9 9 9 10 10 10 10 9 8 6 6 6 5 5 7 5 2 1 2 1 5 9 11 10 11 13 14 15 15 13 13 13
16 18 17 17 23 29 32 33 34 35 36 37 39 39 38 39 41 40 38 37 36 36 35 33 30 26 25 25 24 19 13 18 26 25 25 24 20 19 19 18 18 17 16 14 13 12 13 12 11 11 10 9 8 8 8 8 9 10 10 10 9 8 7 6 6 5 5 6 5 2 2 1 2 3 4 7 9 11 13 14 16 16 15 14 14
16 18 18 17 21 27 31 33 34 34 36 39 40 39 39 40 41 41 40 38 37 36 36 35 31 27 27 27 25 21 16 21 28 27 27 26 21 19 19 18 17 16 15 15 13 12 12 12 11 11 9 9 8 7 7 8 9 9 10 10 8 8 7 7 8 7 5 5 5 4 1 2 3 2 2 2 6 10 12 15 18 18 17 15 13
15 16 17 17 21 25 28 33 34 35 36 39 40 39 39 40 41 41 41 39 38 37 37 35 33 29 29 29 29 26 21 22 26 27 26 25 22 19 19 18 17 16 15 15 14 13 12 12 11 11 9 9 9 7 7 7 8 9 10 9 8 7 7 8 9 9 7 6 6 5 4 5 5 3 4 2 3 6 8 13 19 19 19 18 15
15 16 16 17 21 25 28 32 35 36 36 38 39 39 40 41 42 42 41 40 39 38 37 36 35 32 30 30 31 30 25 22 24 27 26 24 22 21 20 19 17 16 16 16 16 14 13 13 12 11 10 10 9 8 7 7 8 9 10 9 8 8 6 6 10 10 8 7 7 5 4 5 5 5 5 4 3 2 2 5 13 18 22 21 17
16 17 17 17 21 26 30 33 34 36 37 37 38 39 40 41 42 41 40 40 40 39 38 37 36 35 32 31 32 31 28 24 23 26 26 24 24 23 22 21 19 18 16 16 16 15 14 13 12 12 11 11 11 9 8 8 9 10 10 10 9 9 6 5 9 9 7 5 6 5 3 4 4 3 3 3 3 2 1 2 4 9 18 21 20
15 16 16 19 24 28 31 33 34 36 37 38 38 39 40 41 41 41 40 40 40 40 39 38 37 36 34 33 33 32 30 27 24 25 26 26 25 25 24 22 20 20 18 16 16 16 15 14 13 13 12 11 12 10 10 9 10 10 10 9 9 9 8 7 8 7 5 4 4 5 5 4 3 1 2 1 1 2 1 2 0 1 8 17 20
14 15 15 20 25 29 31 32 34 35 36 37 36 38 40 41 41 42 40 40 40 41 40 39 38 37 37 35 34 34 33 31 28 26 27 28 28 27 25 24 22 21 20 19 17 17 17 16 14 15 13 12 13 12 11 11 11 11 10 9 9 9 9 9 9 7 5 4 4 4 5 5 3 1 1 1 2 1 1 1 2 1 3 9 14
15 15 15 17 19 24 29 31 33 35 36 37 36 37 40 41 41 41 40 40 40 41 41 40 39 38 38 37 36 36 35 34 32 30 29 29 29 28 26 25 24 23 23 22 20 18 19 18 15 15 16 15 14 13 12 11 12 12 11 10 10 10 9 9 9 8 6 5 5 5 5 6 5 3 2 3 4 4 2 2 3 4 3 3 4
15 15 15 16 15 18 26 29 32 34 36 38 37 37 39 40 42 41 40 40 41 42 41 40 40 39 39 38 36 36 37 36 35 34 32 30 30 29 29 28 27 26 25 24 23 21 20 20 18 16 17 18 16 14 13 12 13 15 13 11 11 10 10 10 10 9 7 7 6 6 6 7 7 5 5 6 6 6 4 3 4 3 3 4 6
15 15 15 16 15 18 25 29 31 33 37 39 38 38 38 39 41 42 41 41 41 42 42 41 40 40 40 39 36 36 37 38 36 35 34 32 31 30 29 30 28 28 28 26 25 23 21 21 19 17 17 18 18 16 14 12 13 15 15 12 11 10 10 10 10 10 9 8 7 7 7 8 8 6 6 7 9 9 8 6 5 3 3 5 4
14 14 16 16 18 22 26 29 31 33 37 39 38 39 39 38 41 42 41 41 41 41 42 42 41 41 41 39 37 36 37 39 38 36 35 33 32 30 30 30 29 28 28 27 26 25 23 21 20 18 16 17 18 16 14 13 13 13 15 15 12 9 10 10 10 10 10 9 8 8 8 8 8 6 5 6 8 12 13 10 6 4 3 4 4
14 15 16 17 20 24 26 28 31 33 37 39 38 40 40 39 41 42 42 42 42 41 42 43 42 41 41 41 38 37 37 39 39 37 35 34 33 31 31 31 30 28 27 27 26 26 25 23 21 20 18 18 18 16 15 15 14 12 13 17 15 12 11 10 10 11 11 10 8 8 8 8 8 6 5 4 5 9 14 12 8 6 4 2 3
16 15 16 17 19 23 26 29 31 33 36 39 40 41 42 41 41 42 42 42 42 42 42 43 42 41 41 42 40 38 38 39 40 39 36 34 33 32 31 31 31 30 28 27 26 26 26 24 23 22 20 20 19 18 18 17 17 15 14 16 17 15 14 12 10 10 11 10 9 8 9 9 9 7 6 5 3 5 10 11 9 8 6 4 1
17 16 16 16 17 22 27 29 32 35 37 40 41 42 43 43 43 42 42 42 43 42 41 41 41 41 42 42 41 40 39 40 41 41 38 35 34 33 32 31 31 30 29 27 25 25 25 25 24 23 22 22 22 21 21 20 20 20 18 18 18 16 15 14 12 11 11 11 11 11 10 10 11 9 8 7 5 5 8 9 8 8 8 6 5
15 15 14 15 16 22 28 30 32 36 37 39 41 41 41 42 43 43 44 44 43 42 40 40 41 42 42 43 44 42 40 40 40 41 40 37 35 34 33 32 32 30 29 28 26 25 26 25 25 24 23 23 23 23 23 23 23 23 22 21 20 18 17 16 15 14 13 13 13 12 12 11 11 10 8 7 6 7 9 9 8 8 8 7 7
15 16 16 16 18 24 30 31 32 35 36 38 39 39 40 41 41 43 43 43 42 42 41 41 42 42 42 43 44 43 41 40 40 40 41 40 39 37 35 34 33 32 31 29 28 27 26 27 27 27 26 25 25 25 25 25 25 24 24 23 22 21 21 20 19 17 15 15 15 14 14 12 11 11 10 9 8 8 9 9 8 8 8 8 9
16 16 16 17 18 25 31 33 33 34 35 36 38 38 39 39 40 42 42 41 42 43 42 41 41 41 41 41 42 43 42 41 40 40 41 42 41 40 39 37 36 35 34 33 31 30 29 29 28 28 28 28 27 26 26 26 26 26 25 24 23 22 22 22 21 20 18 18 18 17 17 14 13 12 12 11 11 10 9 10 9 9 10 10 11
16 16 17 17 17 22 28 31 31 32 32 34 36 37 38 38 39 41 41 41 42 43 42 41 40 39 40 40 41 42 42 41 40 39 40 41 42 42 41 39 38 38 37 36 34 32 31 31 31 30 29 30 30 28 26 26 27 27 26 25 25 23 22 21 22 22 21 20 19 19 19 16 15 14 14 13 14 13 12 12 12 12 12 12 13
18 17 17 16 17 22 27 28 29 31 32 34 35 36 37 38 39 39 40 41 42 42 42 41 40 40 40 39 39 39 40 41 41 40 40 41 41 42 41 40 39 39 38 37 35 33 31 31 32 32 31 30 31 31 29 27 28 29 28 27 27 26 24 23 23 23 23 22 21 20 20 18 17 17 17 17 17 16 15 14 15 15 15 16 15
16 16 15 14 16 20 22 24 27 29 31 33 34 34 36 37 38 38 40 41 41 41 40 40 41 41 41 39 38 38 38 39 41 41 41 41 41 41 40 40 40 39 38 38 37 34 33 32 33 34 33 32 32 33 32 30 30 30 29 28 28 28 27 26 25 24 23 22 23 23 22 20 19 19 20 19 18 18 18 18 17 17 17 17 17
14 14 13 13 14 16 17 21 25 27 29 32 33 33 34 36 37 38 39 40 40 39 39 39 40 40 40 40 40 38 38 39 40 41 41 42 41 40 40 40 40 39 38 38 38 37 36 35 35 35 36 35 35 35 34 33 32 32 31 30 29 29 29 28 28 27 25 23 23 24 23 22 21 20 21 21 20 19 19 19 19 19 18 17 16
13 14 14 15 15 15 16 20 25 26 28 30 32 33 34 35 37 38 38 39 39 39 39 38 39 38 38 40 41 40 39 40 40 40 41 41 41 41 40 40 40 39 38 38 39 39 38 38 37 37 37 37 37 36 36 36 35 34 33 31 30 30 30 30 29 29 28 26 26 25 24 24 23 23 22 22 21 20 20 20 20 20 19 18 17
2 4 5 6 9 12 15 19 25 28 29 30 32 33 34 34 36 37 37 38 38 38 38 38 38 38 38 39 40 41 41 40 40 41 41 40 41 41 40 40 41 40 39 38 38 39 40 39 39 38 39 39 38 38 37 37 36 35 34 33 32 32 31 31 30 30 29 29 28 27 25 24 25 25 25 24 23 22 21 21 21 21 20 19 19
13 12 10 8 5 1 4 10 19 25 28 29 31 34 34 34 35 36 36 37 37 37 37 37 37 37 37 38 39 40 40 41 40 40 40 40 40 40 41 41 40 40 40 40 39 39 40 40 40 40 40 40 40 40 39 38 37 36 35 34 34 34 33 32 31 31 30 30 30 29 28 26 25 25 26 27 26 25 24 23 23 22 22 21 21
16 15 14 14 13 11 9 6 4 10 18 23 25 28 31 32 32 34 35 35 36 36 36 36 36 36 38 38 38 38 38 39 39 39 40 40 40 40 40 40 40 40 40 40 40 39 39 39 40 41 40 40 40 41 41 40 39 38 36 36 35 35 35 34 33 32 31 31 31 30 30 29 28 26 25 26 26 26 25 25 25 24 23 23 23
15 14 13 13 12 12 12 13 14 13 7 10 16 20 24 28 30 32 33 34 35 35 36 35 35 36 37 37 36 36 37 37 38 39 40 40 40 39 39 40 40 40 40 40 39 39 38 39 40 40 41 40 40 41 42 42 41 40 38 37 36 36 36 35 34 33 33 32 31 31 31 30 29 28 27 26 26 26 26 26 26 25 25 25 25
14 14 13 13 13 13 13 12 14 18 17 9 3 10 15 19 24 27 29 31 33 34 34 35 35 35 35 35 36 36 37 37 38 39 40 40 40 39 39 39 39 40 40 39 39 39 39 39 40 41 41 41 41 42 43 44 43 42 40 38 37 36 36 36 35 35 34 34 33 32 32 32 31 30 29 28 27 27 27 27 28 28 27 27 26
14 13 13 13 13 13 12 12 12 15 18 18 11 2 8 12 17 23 26 28 30 31 32 33 33 33 34 36 38 38 38 39 39 40 41 41 40 39 38 38 39 39 39 39 39 39 39 39 39 40 41 41 41 42 43 44 44 44 42 40 38 37 36 36 36 36 36 36 35 34 33 33 33 32 31 30 29 28 27 28 29 30 30 29 28
13 13 13 12 11 12 12 13 14 15 17 19 18 8 6 11 14 20 24 26 28 30 31 31 31 33 36 39 40 39 40 40 40 41 41 40 40 40 39 39 39 39 39 39 39 40 40 40 39 39 40 41 42 43 44 45 45 44 44 42 40 38 36 36 36 37 37 37 36 36 35 34 34 33 32 31 30 29 28 28 29 30 31 32 31
11 11 11 11 11 13 16 17 18 18 16 14 16 17 9 13 16 19 23 27 29 29 30 32 32 34 38 38 37 36 38 39 40 40 40 40 40 40 40 40 38 38 38 38 39 40 40 41 41 40 40 40 42 44 45 45 45 44 43 43 42 39 37 37 37 37 37 38 37 36 36 36 35 34 33 32 31 31 30 29 30 31 32 33 33
11 11 10 10 13 17 20 23 22 21 17 11 10 16 16 13 15 17 22 28 31 31 31 33 36 37 37 37 36 36 36 37 38 39 39 40 40 40 41 40 38 37 38 38 39 40 40 41 42 41 40 40 41 43 44 45 46 45 43 43 42 40 38 37 37 38 38 39 38 38 38 38 37 36 35 33 32 31 31 31 32 32 32 31 32
13 13 12 12 15 16 18 22 22 20 19 16 13 15 17 14 8 10 15 20 26 31 33 35 37 39 39 39 40 39 37 37 38 39 40 40 41 41 40 40 38 37 37 38 38 39 40 40 41 41 40 40 41 42 43 45 45 45 44 43 42 41 38 37 37 38 39 40 39 39 39 39 38 38 37 35 33 32 32 33 33 33 32 31 31
12 14 16 16 17 16 18 21 22 21 19 20 20 19 18 18 15 13 13 14 17 24 31 36 38 39 40 42 42 40 38 37 37 38 40 41 41 40 40 39 38 37 37 37 37 38 39 39 40 41 41 41 41 41 43 44 45 44 44 43 42 41 38 38 39 40 40 41 41 40 40 39 39 39 38 37 34 33 33 33 32 32 31 31 31
14 15 18 20 20 19 20 22 25 24 21 21 24 25 20 18 19 18 17 17 17 21 28 33 36 38 40 41 42 40 38 36 36 38 39 39 39 39 39 39 38 38 38 37 37 37 37 38 39 40 41 41 41 41 43 44 45 44 44 43 42 40 39 39 40 41 41 41 41 41 41 40 40 40 39 38 35 34 35 35 34 32 30 31 33
14 16 18 21 22 21 20 21 23 24 22 20 22 24 21 18 20 19 18 22 24 27 31 33 35 36 37 39 40 39 37 36 37 38 39 38 39 39 38 39 39 39 38 37 36 35 36 37 38 39 41 42 41 41 42 43 44 44 44 44 42 40 38 39 40 40 40 41 41 42 41 41 41 41 39 38 36 36 36 37 36 33 30 32 35
14 16 17 19 20 20 20 19 20 24 25 21 19 21 20 18 18 18 17 21 28 34 37 37 37 37 37 38 38 37 37 37 37 37 38 38 37 37 37 37 38 38 37 36 35 35 35 36 37 37 39 41 41 40 41 42 43 43 44 44 43 40 39 39 40 40 39 39 40 41 41 41 42 42 40 39 38 37 37 38 37 34 33 34 35
16 16 17 17 17 19 20 19 19 23 26 23 19 20 21 21 20 17 15 16 21 29 35 37 37 37 38 38 38 37 37 38 38 36 35 35 36 35 36 37 36 36 35 35 35 34 34 35 36 36 37 39 41 41 41 41 42 43 44 44 44 42 41 41 40 40 39 38 38 39 41 42 42 42 41 40 39 38 38 38 37 37 37 36 34
18 17 18 18 17 19 21 20 20 23 24 22 20 21 23 24 22 19 17 17 17 20 25 31 34 36 36 37 38 38 38 38 36 34 33 34 35 35 35 35 35 34 35 35 35 34 33 32 33 35 37 39 40 41 42 42 42 42 43 44 45 45 44 43 40 39 38 38 39 40 41 41 42 42 42 40 38 36 35 35 37 38 38 37 34
20 21 21 19 18 18 20 21 22 22 21 20 19 20 22 23 24 24 23 21 19 18 20 24 29 33 35 37 38 38 39 37 34 33 34 35 35 35 34 34 34 33 33 33 34 33 31 30 31 33 36 38 39 40 42 43 43 42 42 43 45 46 47 45 42 40 40 41 41 42 42 41 41 42 42 42 40 38 35 34 35 35 34 35 34
20 22 22 20 18 18 20 21 21 20 20 20 19 19 21 24 25 26 26 25 23 22 20 21 24 29 33 36 37 37 38 38 35 34 35 35 34 34 33 33 34 33 32 31 32 32 31 29 29 31 33 36 38 39 41 44 45 44 42 42 44 45 47 48 45 43 42 42 41 42 43 42 41 41 42 42 42 41 41 40 38 35 33 33 32
18 22 23 23 20 19 19 20 19 18 19 20 20 20 21 25 26 26 26 26 26 24 22 22 23 26 30 34 35 35 36 37 36 35 35 35 35 34 33 33 33 32 31 31 30 31 31 30 29 30 32 34 36 37 38 42 45 46 45 44 43 43 45 48 48 46 44 43 43 43 43 42 42 41 40 39 39 40 39 38 36 34 33 33 32
18 20 22 23 22 20 19 19 18 17 18 20 21 21 22 25 27 26 25 26 26 24 25 26 25 26 28 31 33 34 34 35 36 36 36 36 36 35 34 33 32 32 32 31 30 30 31 30 30 31 32 33 33 34 36 39 43 45 47 47 46 45 44 45 47 48 47 46 44 43 42 41 41 40 38 38 37 36 34 32 31 30 31 32 31
18 20 21 21 20 20 20 19 18 18 20 21 22 22 23 26 26 24 24 26 26 25 25 26 27 27 27 28 32 34 34 33 34 35 35 35 35 36 35 33 33 33 32 31 31 31 31 31 32 32 31 30 31 32 35 37 40 43 45 46 47 45 44 44 46 48 49 47 44 41 40 39 38 37 36 35 34 33 31 29 29 30 30 30 30
21 22 21 19 19 20 20 19 19 20 22 23 22 23 25 27 27 25 23 24 25 24 24 26 27 28 27 26 31 34 34 33 33 34 34 33 34 35 35 35 37 37 34 32 32 32 32 33 32 31 29 28 29 32 35 38 40 43 45 45 45 45 45 46 47 48 48 46 42 38 37 35 34 34 34 34 33 32 31 30 29 30 30 29 28
21 22 21 19 18 20 20 19 20 22 23 23 23 25 27 28 26 24 23 24 25 26 26 26 25 26 26 26 29 32 33 32 32 34 35 36 37 38 37 38 40 42 42 40 38 36 36 36 34 32 31 29 29 34 40 43 43 43 44 45 46 46 47 47 48 48 47 43 38 36 34 33 32 33 33 33 32 31 29 28 27 27 26 27 28
21 22 21 19 19 21 20 19 21 23 22 22 23 26 26 25 24 25 26 26 27 27 26 25 23 23 25 25 27 30 31 32 32 32 32 33 34 38 40 39 40 43 45 46 43 41 40 39 36 36 37 36 37 40 41 40 41 43 44 45 46 47 47 47 47 46 42 37 33 32 32 33 33 32 32 31 30 28 26 23 22 21 23 23 22
19 21 21 20 20 21 20 19 21 23 22 22 24 24 24 23 25 27 27 27 27 26 25 24 22 23 25 25 26 28 29 31 32 31 31 30 30 32 36 38 39 40 42 44 43 42 41 40 38 38 38 40 42 41 37 35 37 40 42 44 45 45 45 44 45 43 39 35 32 31 32 33 33 32 32 32 30 28 25 23 21 20 17 15 13
Wind_Direction
186 194 195 178 170 169 171 171 170 171 172 173 176 178 178 178 179 181 184 183 181 183 183 183 186 187 191 195 191 190 189 186 185 186 188 189 191 189 186 187 187 188 189 189 189 187 183 176 168 163 158 161 164 165 170 166 159 162 161 164 169 151 135 142 136 132 143 152 166 173 175 185 191 193 202 221 230 227 227 223 217 215 212 212 212
185 193 195 180 170 169 170 171 171 171 172 174 176 177 177 178 179 181 184 182 181 183 182 185 188 188 192 194 192 191 190 189 187 186 188 187 189 190 188 191 188 186 188 187 188 189 184 176 170 168 162 162 168 172 177 167 159 162 161 165 167 156 138 140 149 144 141 150 159 161 169 198 205 215 227 240 241 227 221 222 218 217 218 215 216
185 191 194 182 170 169 170 171 173 173 173 175 176 176 176 178 180 182 184 183 183 184 184 187 189 188 191 191 190 190 190 195 194 190 191 190 190 191 190 192 189 187 188 187 187 187 184 179 172 172 168 168 175 178 178 172 166 163 160 162 162 158 150 148 163 168 159 157 148 141 190 207 237 248 246 246 250 232 216 215 215 216 220 217 216
185 189 194 183 171 170 171 171 174 174 174 176 176 176 176 178 180 181 184 184 184 186 187 188 189 190 190 189 192 194 189 194 196 195 197 195 192 192 191 191 191 192 191 187 187 188 188 184 178 177 174 174 180 177 175 174 172 170 166 165 164 163 163 164 176 176 164 162 144 116 140 106 271 264 251 246 252 240 218 212 212 215 218 217 218
184 186 193 187 173 173 173 172 173 174 175 176 177 177 177 179 180 181 184 185 185 187 189 189 190 190 189 189 195 197 186 183 187 190 195 196 193 193 193 192 193 194 192 189 189 189 189 189 185 182 179 182 183 177 175 174 174 176 174 171 169 172 178 181 187 178 163 167 164 142 97 111 234 240 242 246 245 234 223 218 216 216 216 217 221
183 185 189 189 177 173 174 173 174 176 177 178 179 179 180 180 181 182 184 185 186 188 189 190 191 188 186 189 195 197 187 179 181 184 190 192 193 195 194 194 196 195 194 193 194 193 189 189 189 184 182 185 186 184 183 180 177 178 178 174 171 176 188 197 200 192 172 170 183 194 213 248 248 190 153 243 244 232 233 230 223 220 218 221 225
185 185 186 187 179 173 174 175 176 177 178 179 180 180 181 181 181 182 184 186 187 188 189 191 191 188 186 190 195 197 193 184 184 187 189 191 193 195 194 196 199 198 198 197 197 199 194 192 194 191 189 188 189 189 187 184 180 180 180 178 175 177 191 207 205 198 190 189 201 223 263 271 269 236 183 169 230 233 242 230 223 222 218 221 225
184 185 185 186 182 176 176 178 178 178 177 178 180 181 182 182 182 183 184 186 188 188 190 190 190 188 189 193 195 197 196 189 187 189 190 191 192 194 193 194 199 198 200 201 199 201 201 199 199 200 201 198 198 197 190 186 183 183 182 181 187 185 186 202 198 194 198 200 203 220 274 266 253 240 203 173 153 190 268 223 220 223 219 220 225
184 186 186 185 183 179 178 179 179 179 178 178 180 182 183 183 182 183 184 186 188 189 190 191 191 190 189 194 196 196 197 193 188 189 191 192 192 194 193 193 197 196 197 201 200 201 204 204 204 207 211 208 205 201 195 194 190 188 185 183 189 189 181 186 189 188 189 183 188 204 233 228 225 229 185 158 122 134 229 243 223 222 221 223 225
187 187 187 186 185 181 178 178 179 180 180 180 180 181 182 182 182 184 185 186 188 189 191 192 193 192 191 194 196 195 196 196 192 188 191 194 194 195 196 194 196 197 198 202 204 205 208 209 207 208 213 213 209 205 202 204 202 199 195 186 189 196 192 187 187 187 179 170 180 199 208 206 215 222 158 153 55 107 162 257 334 152 223 231 230
189 187 187 186 185 182 178 178 179 180 181 180 180 181 181 182 183 184 186 187 188 189 191 193 194 194 194 196 196 195 195 197 195 189 189 194 195 196 197 197 198 198 201 205 208 212 213 214 213 210 211 214 215 214 212 211 210 207 203 195 197 203 200 193 192 189 179 178 197 208 207 205 204 184 173 236 259 163 120 279 302 357 258 244 235
187 187 187 183 182 182 179 178 178 179 180 180 181 181 181 183 183 184 186 187 189 190 192 194 195 197 198 198 198 198 197 197 197 194 191 194 197 197 198 198 198 198 202 207 208 212 214 214 217 214 211 213 218 222 221 222 224 217 209 205 203 200 198 198 196 193 188 192 209 214 205 208 209 206 232 264 260 233 205 253 293 315 299 292 279
188 187 187 183 180 181 180 179 177 178 181 182 182 182 182 183 184 184 187 188 190 191 192 194 196 198 200 201 201 200 199 199 198 198 197 198 199 198 198 199 197 197 200 206 208 209 212 214 218 218 212 211 215 220 226 232 231 222 214 209 207 204 202 202 198 195 196 199 211 219 208 208 213 223 252 271 269 252 241 254 271 288 275 297 322
191 188 188 187 183 183 183 180 178 178 181 183 183 183 183 184 185 185 188 190 191 192 193 195 197 199 201 203 203 201 201 200 200 200 200 201 201 200 200 200 198 197 199 204 207 207 212 216 219 220 214 210 210 214 224 228 221 219 220 216 212 212 209 206 203 203 205 206 213 220 214 215 221 233 259 276 276 263 254 250 250 267 277 280 298
192 192 191 191 185 184 184 182 181 179 181 183 184 184 184 185 186 187 188 190 191 192 194 196 198 199 202 205 204 202 202 201 201 200 199 202 204 204 204 203 202 200 200 203 206 207 212 215 218 221 213 207 207 211 218 220 212 217 226 222 217 215 211 209 209 208 209 210 211 215 218 227 232 235 258 283 280 262 251 247 243 241 276 300 307
193 195 194 193 188 185 185 184 184 182 182 184 185 185 185 186 187 188 189 190 192 194 195 197 199 200 202 205 205 203 202 201 200 201 200 202 205 206 206 207 208 206 202 204 207 208 212 213 216 220 213 205 208 211 215 219 217 219 224 219 216 215 214 214 213 209 207 207 209 215 221 231 231 229 249 278 285 257 244 243 243 226 212 279 327
193 195 194 193 189 188 187 185 184 184 183 185 186 187 187 188 188 189 190 191 193 195 197 198 198 200 203 206 206 203 201 200 200 200 200 201 204 208 209 209 210 209 206 205 206 209 213 214 216 218 214 209 213 215 214 217 220 222 221 215 214 217 218 218 217 214 210 209 214 221 226 229 227 230 245 259 283 255 232 230 235 232 216 205 226
193 194 193 192 190 190 191 188 187 186 185 187 187 188 189 189 190 190 190 192 194 196 198 198 199 200 203 205 207 205 202 201 201 201 200 200 203 206 209 210 209 209 209 207 207 209 212 215 217 217 215 213 215 216 216 218 222 224 224 218 214 215 218 218 220 223 218 216 223 228 231 232 230 233 237 240 242 224 217 218 224 237 241 226 202
191 191 191 193 192 193 194 193 190 188 188 188 188 188 189 190 191 191 192 193 194 196 198 200 201 201 203 205 206 207 205 203 202 202 202 202 203 204 206 208 207 208 209 209 210 211 213 216 218 219 219 217 216 217 218 221 225 228 228 224 220 218 220 220 221 226 226 224 226 226 227 230 231 230 225 227 235 225 221 227 234 243 244 240 230
190 188 190 192 192 194 195 195 193 190 189 188 188 188 189 191 192 193 194 194 194 196 198 200 202 203 204 205 206 207 206 205 204 204 204 205 206 205 205 206 208 209 210 211 213 215 217 219 221 222 222 221 219 219 220 223 227 230 232 230 227 224 224 226 224 225 227 228 228 226 226 229 229 227 222 224 237 237 232 236 248 253 238 236 248
190 185 187 191 192 194 195 195 194 192 190 188 188 189 190 190 192 193 194 194 194 196 198 200 202 204 205 206 206 207 207 206 206 206 207 208 208 209 209 209 210 212 213 214 216 219 220 222 224 225 226 225 223 222 223 225 227 231 233 233 230 227 227 227 224 224 225 227 230 229 229 230 228 227 225 226 235 239 236 235 242 252 243 235 242
187 185 186 187 190 193 193 194 194 192 191 190 189 190 190 190 192 193 194 195 196 197 198 199 202 204 207 208 208 208 207 207 207 208 208 210 210 211 213 213 214 215 217 217 218 220 221 224 226 228 229 229 227 225 226 227 228 231 233 232 230 229 229 226 223 224 224 226 230 231 229 228 227 228 226 225 232 236 234 235 237 244 248 244 241
185 183 184 186 187 189 190 191 192 192 192 191 191 191 191 191 192 193 194 196 197 198 198 199 201 204 207 210 210 209 209 208 208 209 210 210 211 212 213 214 215 217 218 219 219 218 218 221 225 228 229 229 228 227 228 229 230 232 233 232 230 230 231 229 227 227 226 227 229 229 227 226 227 230 230 229 233 235 235 238 241 245 251 252 249
185 183 183 183 183 185 188 189 190 191 193 193 192 192 192 192 192 193 195 197 198 198 199 199 200 203 205 208 211 212 211 210 210 210 211 212 213 214 214 214 216 216 217 219 220 219 217 218 222 224 227 228 228 228 229 231 232 233 234 234 233 232 232 233 232 232 231 229 229 228 227 228 231 234 234 234 236 237 237 238 241 245 251 256 256
180 183 181 179 182 185 188 189 189 189 192 193 194 193 192 192 193 194 196 197 197 198 198 199 200 203 204 205 209 211 212 213 213 212 213 214 214 215 215 215 216 217 217 218 219 219 220 220 221 222 225 227 228 229 229 231 232 233 235 236 236 235 235 236 236 236 235 234 232 231 230 230 233 235 235 235 238 240 240 240 241 244 248 254 258
189 189 186 183 185 187 189 190 190 189 190 191 193 194 194 194 194 195 195 196 197 197 197 199 201 202 204 206 207 209 212 214 215 215 215 216 216 217 217 217 217 217 218 218 218 219 220 221 222 223 224 226 228 229 230 231 232 232 233 236 238 239 239 239 240 239 238 239 238 236 235 234 234 235 236 236 238 242 243 242 242 245 249 253 255
201 199 195 192 194 195 194 192 192 192 191 191 193 194 194 194 194 195 195 195 196 197 197 198 200 202 205 207 208 208 210 213 216 217 217 217 218 218 219 219 219 218 218 218 219 219 220 221 223 224 225 227 228 230 231 232 232 232 232 234 237 239 240 241 242 241 240 241 242 241 240 239 237 236 236 236 239 242 243 244 245 247 250 254 257
39 32 30 32 26 321 228 209 203 200 196 194 194 195 195 195 194 194 195 195 195 196 197 197 199 202 205 208 210 210 211 213 215 218 219 219 219 219 220 221 221 220 220 219 219 220 220 221 223 225 226 226 227 228 230 232 233 233 232 233 235 237 239 241 242 244 243 243 244 245 245 245 243 241 239 238 239 242 244 246 249 251 252 254 257
42 34 33 37 37 33 25 4 287 232 214 204 200 198 196 196 196 194 193 195 195 194 196 198 199 203 206 209 210 211 212 214 215 217 219 220 221 221 221 222 222 222 222 221 221 220 221 221 222 224 226 226 226 227 228 230 232 233 232 233 234 234 236 238 240 243 245 245 245 246 248 249 249 248 246 242 241 242 245 248 250 251 252 254 257
39 31 28 30 34 40 41 35 23 3 313 229 208 206 202 197 196 195 193 193 194 194 196 198 200 204 207 208 210 211 212 213 215 216 218 220 221 222 222 222 223 223 223 223 222 221 221 221 222 223 224 225 225 226 228 230 232 233 233 232 232 232 233 235 237 240 243 244 245 246 247 250 251 252 252 249 246 245 247 249 250 251 252 253 256
32 27 22 21 23 30 36 39 35 22 7 352 223 205 212 207 198 196 196 194 193 195 196 198 202 205 206 208 209 211 212 213 214 216 217 219 220 221 222 222 223 224 224 223 222 221 221 222 222 223 223 224 224 226 228 230 232 233 233 232 231 232 232 232 234 237 240 243 244 245 247 249 250 252 253 252 251 250 250 250 251 252 252 253 254
23 20 17 16 16 20 23 23 28 33 24 9 3 117 189 213 210 201 198 196 195 195 197 199 202 204 206 208 209 210 211 212 213 215 216 218 219 220 221 222 222 223 224 223 222 222 222 222 222 223 223 224 225 227 229 230 232 233 233 232 231 231 231 231 233 235 238 241 243 244 246 248 249 251 252 252 253 253 252 252 253 253 254 254 254
15 11 8 11 14 12 9 3 3 17 29 14 350 332 184 193 214 210 202 199 198 198 199 200 202 204 206 209 209 209 210 211 212 214 215 216 217 218 220 221 222 223 223 223 223 222 222 222 222 223 223 224 226 227 229 230 232 233 232 232 231 231 232 232 233 234 237 239 241 243 245 246 248 250 251 251 253 254 253 253 254 257 257 256 256
9 2 1 5 3 358 356 353 351 355 9 17 348 322 268 199 203 211 208 204 202 201 202 202 203 206 209 208 207 209 211 211 211 212 213 214 215 217 219 220 222 222 222 223 223 222 222 222 222 223 224 225 226 228 229 230 231 233 233 232 231 232 233 234 234 235 237 239 240 241 243 245 247 247 247 248 250 252 253 253 256 259 260 259 257
359 356 0 2 358 354 348 342 342 347 352 3 349 315 284 231 202 204 208 208 206 204 203 205 206 209 211 209 208 210 212 212 212 211 211 213 214 216 218 219 220 221 222 223 224 223 223 222 222 222 223 225 227 228 229 230 231 233 233 233 231 231 232 234 236 237 238 240 241 242 243 245 246 247 247 247 247 248 250 253 256 258 261 261 260
351 349 352 355 356 350 338 330 333 345 353 353 341 317 301 289 258 219 211 209 209 207 205 206 209 210 212 213 213 212 212 212 211 210 210 212 213 215 216 217 218 221 222 224 224 224 224 223 222 222 222 225 228 229 230 230 231 232 233 233 231 230 231 234 236 238 240 242 242 242 243 244 246 248 249 249 248 248 249 252 255 258 260 262 263
346 342 343 346 348 342 336 336 335 343 358 355 338 326 320 312 297 268 236 220 218 216 210 208 211 213 214 216 217 215 213 212 211 209 210 211 212 213 215 215 216 218 221 223 224 225 225 224 222 221 222 224 227 228 229 230 231 232 232 231 230 229 231 234 237 239 241 242 243 243 243 244 246 248 250 251 250 248 248 249 252 254 257 260 263
346 342 340 341 344 343 343 345 340 341 356 353 331 325 324 309 295 282 255 234 235 236 224 215 214 215 216 217 218 218 215 212 212 212 212 212 212 213 214 214 214 217 220 222 224 225 225 225 223 222 222 223 226 228 229 230 231 231 230 230 229 229 230 233 237 240 241 242 243 244 244 245 246 249 250 251 250 248 246 247 249 251 253 257 260
346 345 341 338 339 341 343 346 342 339 345 344 325 317 316 301 292 288 262 237 235 239 235 228 223 221 220 219 219 218 216 215 215 214 214 214 214 213 213 213 214 216 219 221 222 224 225 225 224 224 223 224 226 228 229 230 231 231 230 229 228 227 229 232 235 238 241 242 243 245 245 245 247 250 251 251 251 249 247 248 249 248 248 252 256
346 343 340 337 337 338 339 340 340 334 334 334 323 313 310 305 302 298 275 246 235 234 235 234 231 228 226 223 221 218 216 217 218 217 216 215 215 214 213 213 213 215 217 219 220 222 224 225 224 224 224 224 225 227 229 230 230 230 230 228 226 225 227 231 234 237 239 240 242 243 244 245 246 249 251 251 251 250 248 249 248 244 244 249 254
341 338 338 339 338 337 333 329 331 334 334 333 328 319 312 309 308 303 290 273 255 244 242 240 236 233 230 227 224 220 219 219 220 218 217 216 215 214 214 213 212 213 214 217 219 220 222 224 225 224 224 224 225 226 229 230 230 230 229 228 225 225 227 230 233 235 237 238 240 241 243 244 245 246 248 249 249 248 248 249 248 245 247 251 253
337 337 342 344 340 335 329 324 330 337 335 332 328 320 313 310 306 300 299 301 292 274 262 253 245 238 233 230 227 223 221 221 220 218 215 215 215 215 214 213 212 212 213 215 217 219 221 223 224 224 224 225 225 226 228 230 230 229 229 228 226 227 229 230 231 234 236 237 239 241 243 245 245 244 245 246 247 247 246 247 248 249 251 252 252
336 337 340 343 344 336 326 322 328 334 335 333 327 317 312 309 304 303 307 308 303 296 284 271 259 250 242 235 229 225 222 221 220 217 214 214 213 213 213 213 212 211 212 214 215 217 219 221 222 223 224 225 225 225 226 229 230 230 229 228 228 230 231 230 230 232 236 238 239 241 244 247 247 246 246 246 246 247 246 247 248 249 250 251 251
333 332 334 339 342 336 325 322 327 333 335 332 326 317 311 304 300 304 309 309 304 301 294 284 274 265 254 244 235 228 223 221 219 217 214 213 211 210 210 210 210 210 211 213 214 215 216 218 220 222 223 224 224 224 225 227 229 230 229 228 228 230 232 232 231 233 236 239 241 243 246 249 250 249 250 250 250 251 251 252 253 252 251 250 249
330 330 332 336 338 334 326 322 326 334 336 332 327 320 309 302 302 305 306 304 303 302 298 293 286 276 265 254 243 233 226 222 218 215 212 211 209 207 207 207 208 208 209 211 213 213 214 217 219 221 223 223 223 223 224 226 228 229 230 231 230 231 232 232 232 235 238 240 243 246 249 252 253 253 253 253 253 254 255 257 259 259 256 253 249
329 329 330 333 335 333 327 323 327 336 337 333 330 324 311 304 306 308 305 302 301 299 298 298 295 287 274 259 247 237 229 223 218 214 212 211 208 205 204 204 205 206 208 211 211 211 213 216 218 221 222 222 221 221 222 225 227 228 230 232 233 234 235 235 235 238 241 243 245 248 250 252 254 255 255 255 256 257 258 259 260 260 258 255 251
325 326 326 327 331 331 326 325 332 337 335 331 329 326 318 313 311 310 307 304 301 297 296 296 297 296 283 260 243 235 229 222 217 213 212 211 208 205 203 202 202 204 207 209 210 210 212 214 218 221 222 221 220 220 221 223 225 226 228 230 232 234 235 236 236 238 240 242 243 246 249 251 254 255 256 257 257 257 257 256 256 257 257 257 255
323 325 324 324 328 330 326 328 336 337 332 327 326 326 325 322 319 317 316 312 307 302 299 297 297 299 290 264 240 230 224 219 214 211 209 207 206 204 203 203 204 204 205 206 208 210 212 214 217 219 219 220 220 220 221 222 223 225 226 226 228 231 234 234 235 237 239 240 240 243 247 249 251 252 253 253 253 252 252 251 253 254 255 255 254
320 323 321 319 323 328 328 331 337 336 331 327 326 327 328 327 325 323 323 321 316 309 303 300 300 301 294 271 242 227 220 215 211 209 207 206 205 204 204 207 209 209 209 209 209 210 213 215 217 217 217 217 219 222 224 224 224 225 226 226 227 230 232 234 236 239 239 237 237 240 244 245 246 247 247 247 246 245 245 245 246 248 250 250 248
319 322 319 316 321 327 328 330 334 334 332 330 328 329 329 328 325 324 324 323 320 312 304 301 303 305 298 275 245 227 218 212 209 206 204 204 205 206 206 208 210 212 214 213 212 213 214 215 217 219 219 220 222 226 228 227 226 228 230 230 232 234 235 236 238 238 236 233 234 237 239 240 241 241 240 240 239 237 236 234 235 239 243 242 240
316 319 316 314 320 327 328 328 331 332 331 329 328 330 332 331 328 325 323 321 319 313 305 302 304 307 303 281 250 229 218 212 208 204 198 195 196 201 206 210 211 213 214 215 215 217 218 217 218 220 222 225 228 230 232 231 230 231 233 234 235 237 238 239 239 237 232 227 229 232 234 237 238 238 238 238 235 232 230 227 228 230 228 223 224